Location: Newark
(51.3318°N, 0.0053°E)
Time: 21:47:25
(UTC+00:00)

STRAND 1 - Pass Details

Date: 07 July 2022
Orbit: 767 x 781 km, 98.4° (Epoch: 09 August)

Event Time Altitude Azimuth Distance (km) Brightness Sun altitude
Rises 21:11:48 0° 4° (N) 3,272 ? -7.0°
Reaches altitude 10° 21:15:09 10° 341° (NNW) 2,336 ? -7.3°
Maximum altitude 21:17:50 15° 309° (NW) 2,030 ? -7.6°
Drops below altitude 10° 21:20:31 10° 277° (W) 2,324 ? -7.8°
Sets 21:23:50 0° 254° (WSW) 3,243 ? -8.1°
